{"data":{"norad_id":46565,"intl_designator":"2020-070AK","name":"STARLINK-1735","alt_names":[],"object_type":"PAYLOAD","status":"ACTIVE","operator":null,"country":"US","launch_date":"2020-10-06","launch_site_code":"AFETR","launch_vehicle":null,"mission":null,"orbit_class":"UNKNOWN","rcs_meters":null,"size_class":null,"mass_kg":null,"dimensions":null,"purposes":["comms"],"wikipedia_slug":null,"has_3d_model":false,"image_url":null,"decayed_at":null,"tle_current":{"epoch":"2026-07-09T05:35:04.645824Z","epoch_age_seconds":6352304,"freshness":"OLD","line1":"1 46565U 20070AK  26190.23269266  .06099311  12349-4  61625-3 0  9994","line2":"2 46565  53.0131 229.1412 0005896 325.1725  34.8933 16.37184566319522","mean_motion":16.37184566,"eccentricity":0.0005896,"inclination_deg":53.0131,"raan_deg":229.1412,"arg_perigee_deg":325.1725,"mean_anomaly_deg":34.8933,"bstar":0.00061625,"rev_number":31952,"period_min":87.955874365358,"perigee_km":169.43995121622,"apogee_km":177.16540888693,"semimajor_km":6551.4396800516,"source":"CELESTRAK","updated_at":"2026-07-09T09:02:07.792592Z"}}}